Regional Weather Roundup
Issued by NWS Sterling, VA

Home | Current Version | Previous Version | Text Only | Print | Product List | Glossary Off
Versions: 1 2 3 4 5 6 7 8 9 10 11 12 13 14 15 16 17 18 19 20 21 22 23 24 25 26 27 28 29 30 31 32 33 34 35 36 37 38 39 40 41 42 43 44 45 46 47 48 49 50

000
ASUS41 KLWX 231010
RWRLWX

REGIONAL WEATHER ROUNDUP
NATIONAL WEATHER SERVICE BALTIMORE MD/WASHINGTON DC
600 AM EDT WED JUL 23 2014

Note: "FAIR" indicates few or no clouds below 12,000 feet
with no significant weather and/or obstructions to visibility.
 TC=TEMPERATURE CELSIUS

 * =Non NWS site. Station does not report precipitation (e.g. rain,
    snow, etc.), thunder, or fog.

DCZ001-MDZ009-015-VAZ040>042-051-053>054-231100-
WASHINGTON METRO
  /KDAA//-FT BELVOIR

CITY           SKY/WX    TMP DP  RH WIND       PRES   REMARKS
WASHINGTON NAT PTCLDY    75  69  81 S9        30.00F
DULLES         PTCLDY    71  69  93 S8        30.00F
ANDREWS AFB    PTCLDY    72  71  97 S7        30.01F
QUANTICO       PTCLDY    74  70  87 SW8       30.01F
COLLEGE PARK*  CLEAR     73  72  94 CALM      29.99F
LEESBURG*      PTCLDY    72  72 100 CALM      30.01S
MANASSAS*      CLEAR     72  70  94 CALM      30.00S
GAITHERSBURG*  CLEAR     72  68  88 S5        30.04S

$$

MDZ006>007-011-014-231100-
BALTIMORE METRO

CITY           SKY/WX    TMP DP  RH WIND       PRES   REMARKS
BWI AIRPORT    PTCLDY    71  68  90 S6        29.98F
MD SCIENCE CTR   N/A     73  69  87 MISG      29.99F
MARTIN STATE   CLEAR     73  72  94 S5        30.00F
ANNAPOLIS      CLEAR     73  70  90 CALM      29.99F
FORT MEADE*    CLEAR     64  63  94 CALM      30.01F

$$

MDZ012-015-019>023-231100-
MARYLAND EASTERN SHORE

CITY           SKY/WX    TMP DP  RH WIND       PRES   REMARKS
OCEAN CITY     FOG       66  65  96 CALM      30.02F VSB 3/4
SALISBURY      NOT AVBL
BAY BRIDGE AP*   N/A     73  72  94 S5        30.00F
CAMBRIDGE*     MOCLDY    72  68  88 CALM      30.01F
EASTON*        CLEAR     74  74 100 CALM      30.04F

$$

MDZ017>025-231100-
SOUTHERN MARYLAND

CITY           SKY/WX    TMP DP  RH WIND       PRES   REMARKS
PATUXENT RIVER PTCLDY    73  71  93 S3        30.01F
ST INIGOES     NOT AVBL
LEONARDTOWN*     N/A     72  68  88 CALM      30.03F

$$

MDZ003>005-231100-
NORTH CENTRAL MARYLAND

CITY           SKY/WX    TMP DP  RH WIND       PRES   REMARKS
FREDERICK*     CLEAR     70  70 100 CALM      30.02S
HAGERSTOWN APT CLEAR     73  69  87 S5        30.00S
WESTMINSTER*   PTCLDY    72  70  94 S3        30.01S

$$

MDZ501>502-231100-
WESTERN MARYLAND

CITY           SKY/WX    TMP DP  RH WIND       PRES   REMARKS
OAKLAND*       CLEAR     66 N/A N/A SW8       30.13R
CUMBERLAND*    CLOUDY    70  68  94 CALM      30.06R VSB 1/4

$$

VAZ025>031-231100-
SHENANDOAH VALLEY

CITY           SKY/WX    TMP DP  RH WIND       PRES   REMARKS
WINCHESTER*    PTCLDY    73  68  83 SW5       30.00S
STAUNTON*      PTCLDY    69  66  90 CALM      30.07S

$$

WVZ021-048>050-054>055-231100-
EASTERN WEST VIRGINIA PANHANDLE

CITY           SKY/WX    TMP DP  RH WIND       PRES   REMARKS
MARTINSBURG    CLEAR     70  66  87 CALM      30.00S FOG
PETERSBURG*    MOCLDY    67  63  88 CALM      30.04R FOG

$$

VAZ036>039-050-231100-
CENTRAL FOOTHILLS

CITY           SKY/WX    TMP DP  RH WIND       PRES   REMARKS
CHARLOTTESVILL MOCLDY    70  69  97 SW5       30.02F
ORANGE*        CLEAR     70  68  94 S6        30.03S

$$

VAZ055>057-231100-
NORTH AND CENTRAL PIEDMONT

CITY           SKY/WX    TMP DP  RH WIND       PRES   REMARKS
FREDERICKSBRG* CLEAR     72  71  98 S3        30.00F
STAFFORD*      PTCLDY    69  69 100 CALM      30.04F

$$

NCZ024-NYZ072-PAZ021-071-VAZ022-071-231100-
OTHER REGIONAL OBSERVATIONS

CITY           SKY/WX    TMP DP  RH WIND       PRES   REMARKS
NEW YORK CITY  PTCLDY    73  63  70 VRB3      30.00F
PHILADELPHIA   MOCLDY    72  65  78 S9G18     30.00F
PITTSBURGH     PTCLDY    74  69  85 SW5       30.01R
ROANOKE        CLEAR     68  66  93 CALM      30.09F
RICHMOND       PTCLDY    70  68  93 S5        30.03F FOG
RALEIGH        FOG       71  69  93 CALM      30.07R VSB 1

$$

ANZ530>537-231100-
MARINE OBSERVATIONS

STATION/POSITION TIME  TEMP    WIND        PRES
                       AIR SEA DIR/SP/G
                 (UTC) (F)     (DEG/KT/KT) (MB)
THOMAS PT LIGHT  1000   74 79  220/ 10/ 11 1016.3F
BALT KEY BRIDGE  1000   72     180/  4/  6 1015.3F
COVE POINT       1000   74     240/  9/ 11 1016.0F
LEWISETTA        1000   74 81  220/  6/  7 1016.3S
SOLOMONS ISLAND  1000      81                N/A
PINEY POINT      1000          230/  4/  5   N/A

$$



USA.gov is the U.S. government's official web portal to all federal, state and local government web resources and services.